Printer-friendly version
Follow the MPC on Twitter Follow the MPC on Facebook The MPC blog
Minor Planet Center

MPEC 2010-L41 : 2010 KK127

The following Minor Planet Electronic Circular may be linked-to from your own Web pages, but must not otherwise be redistributed electronically.

A form allowing access to any MPEC is at the bottom of this page.


Read MPEC 2010-L40 Read MPEC 2010-L42


M.P.E.C. 2010-L41                                Issued 2010 June 8, 12:01 UT

     The Minor Planet Electronic Circulars contain information on unusual
         minor planets and routine data on comets.  They are published
   on behalf of Commission 20 of the International Astronomical Union by the
          Minor Planet Center, Smithsonian Astrophysical Observatory,
                          Cambridge, MA 02138, U.S.A.

             Prepared using the Tamkin Foundation Computer Network

                              MPC@CFA.HARVARD.EDU
       URL http://www.minorplanetcenter.org/iau/mpc.html  ISSN 1523-6714

                                  2010 KK127

Observations:
     K10KC7K* S2010 05 21.72469 21 59 09.30 -02 25 25.6          22   R EL041C51
     K10KC7K  s2010 05 21.72469 1 + 5695.5095 - 3876.0340 -  552.8711   EL041C51
     K10KC7K  S2010 05 21.98930 21 59 56.26 -02 20 37.3                 EL041C51
     K10KC7K  s2010 05 21.98930 1 + 5714.2834 - 3849.5479 -  545.6968   EL041C51
     K10KC7K  S2010 05 22.12160 22 00 19.80 -02 18 15.3                 EL041C51
     K10KC7K  s2010 05 22.12160 1 + 5723.9153 - 3836.2539 -  540.6908   EL041C51
     K10KC7K  S2010 05 22.91543 22 02 40.61 -02 03 50.9                 EL041C51
     K10KC7K  s2010 05 22.91543 1 + 5778.4363 - 3756.1444 -  516.4823   EL041C51
     K10KC7K  S2010 05 23.04773 22 03 04.20 -02 01 24.5                 EL041C51
     K10KC7K  s2010 05 23.04773 1 + 5787.9710 - 3742.6122 -  512.0111   EL041C51
     K10KC7K  S2010 05 23.18003 22 03 27.81 -01 59 01.0                 EL041C51
     K10KC7K  s2010 05 23.18003 1 + 5797.0813 - 3729.1950 -  507.4426   EL041C51
     K10KC7K  S2010 05 23.31234 22 03 51.36 -01 56 34.2                 EL041C51
     K10KC7K  s2010 05 23.31234 1 + 5805.8182 - 3715.7626 -  503.9015   EL041C51
     K10KC7K  S2010 05 23.51086 22 04 26.62 -01 52 57.6                 EL041C51
     K10KC7K  s2010 05 23.51086 1 + 5813.7483 - 3698.4229 -  538.5447   EL041C51
     K10KC7K  S2010 05 23.64316 22 04 50.26 -01 50 34.6                 EL041C51
     K10KC7K  s2010 05 23.64316 1 + 5822.6740 - 3684.9393 -  533.6819   EL041C51
     K10KC7K  S2010 05 23.77547 22 05 13.81 -01 48 09.0                 EL041C51
     K10KC7K  s2010 05 23.77547 1 + 5831.3397 - 3671.3494 -  530.8004   EL041C51
     K10KC7K  S2010 05 23.84155 22 05 25.50 -01 46 57.5                 EL041C51
     K10KC7K  s2010 05 23.84155 1 + 5841.0722 - 3661.6045 -  488.2115   EL041C51
     K10KC7K  S2010 05 24.04007 22 06 01.08 -01 43 18.6                 EL041C51
     K10KC7K  s2010 05 24.04007 1 + 5849.3863 - 3644.1841 -  522.7866   EL041C51
     K10KC7K  S2010 05 24.17225 22 06 24.54 -01 40 50.0          22   R EL041C51
     K10KC7K  s2010 05 24.17225 1 + 5868.8610 - 3624.2432 -  435.6031   EL041C51
     K10KC7K  S2010 05 24.17238 22 06 24.65 -01 40 53.2                 EL041C51
     K10KC7K  s2010 05 24.17238 1 + 5858.2961 - 3630.6180 -  518.2311   EL041C51
     K10KC7K  S2010 05 24.23847 22 06 36.55 -01 39 38.6                 EL041C51
     K10KC7K  s2010 05 24.23847 1 + 5867.9721 - 3620.7306 -  474.9865   EL041C51
     K10KC7K  S2010 05 24.30468 22 06 48.48 -01 38 26.9                 EL041C51
     K10KC7K  s2010 05 24.30468 1 + 5866.8161 - 3617.0561 -  514.6904   EL041C51
     K10KC7K  S2010 05 24.37077 22 07 00.05 -01 37 13.4                 EL041C51
     K10KC7K  s2010 05 24.37077 1 + 5876.3340 - 3607.0478 -  472.0787   EL041C51
     K10KC7K  S2010 05 24.56916 22 07 35.54 -01 33 35.9                 EL041C51
     K10KC7K  s2010 05 24.56916 1 + 5894.7008 - 3583.1267 -  422.5275   EL041C51
     K10KC7K  S2010 05 24.70147 22 07 59.21 -01 31 09.3                 EL041C51
     K10KC7K  s2010 05 24.70147 1 + 5903.1387 - 3569.4016 -  418.8453   EL041C51
     K10KC7K  S2010 05 24.76768 22 08 11.10 -01 29 56.2                 EL041C51
     K10KC7K  s2010 05 24.76768 1 + 5902.2774 - 3565.8501 -  458.8550   EL041C51
     K10KC7K  S2010 05 24.96607 22 08 46.52 -01 26 17.1                 EL041C51
     K10KC7K  s2010 05 24.96607 1 + 5920.2196 - 3541.8846 -  411.9109   EL041C51
     K10KC7K  S2010 05 25.09838 22 09 10.26 -01 23 51.0                 EL041C51
     K10KC7K  s2010 05 25.09838 1 + 5929.1135 - 3527.9959 -  407.1267   EL041C51
     K10KC7K  S2010 05 25.23068 22 09 33.94 -01 21 26.7                 EL041C51
     K10KC7K  s2010 05 25.23068 1 + 5937.4867 - 3514.2504 -  403.1091   EL041C51
     K10KC7K  S2010 05 25.49529 22 10 21.47 -01 16 31.7                 EL041C51
     K10KC7K  s2010 05 25.49529 1 + 5954.1032 - 3486.4795 -  395.3029   EL041C51
     K10KC7K  S2010 05 25.62759 22 10 45.12 -01 14 04.4                 EL041C51
     K10KC7K  s2010 05 25.62759 1 + 5962.5050 - 3472.5908 -  390.1371   EL041C51
     K10KC7K  S2010 05 25.75990 22 11 08.82 -01 11 36.0                 EL041C51
     K10KC7K  s2010 05 25.75990 1 + 5970.6174 - 3458.6432 -  387.2088   EL041C51
     K10KC7K  S2010 05 26.02450 22 11 56.38 -01 06 45.8                 EL041C51
     K10KC7K  s2010 05 26.02450 1 + 5987.4714 - 3430.7395 -  379.3867   EL041C51
     K10KC7K  S2010 05 26.15681 22 12 20.16 -01 04 17.6                 EL041C51
     K10KC7K  s2010 05 26.15681 1 + 5995.8497 - 3416.7765 -  374.8026   EL041C51
     K10KC7K  S2010 05 26.28911 22 12 44.02 -01 01 51.0                 EL041C51
     K10KC7K  s2010 05 26.28911 1 + 6003.8268 - 3402.8680 -  371.1607   EL041C51
     K10KC7K  S2010 05 26.42142 22 13 07.79 -00 59 23.5                 EL041C51
     K10KC7K  s2010 05 26.42142 1 + 6011.7722 - 3388.8053 -  367.9601   EL041C51
     K10KC7K  S2010 05 26.68602 22 13 55.22 -00 54 28.7                 EL041C51
     K10KC7K  s2010 05 26.68602 1 + 6028.0690 - 3360.6913 -  358.0825   EL041C51
     K10KC7K  S2010 06 06.40224 22 46 41.06 +02 28 33.1          22   R EL041C51
     K10KC7K  s2010 06 06.40224 1 + 6568.7187 - 2134.9096 +  179.5083   EL041C51
     K10KC7K  S2010 06 06.53455 22 47 05.64 +02 31 06.4                 EL041C51
     K10KC7K  s2010 06 06.53455 1 + 6573.6626 - 2119.4412 +  184.3482   EL041C51
     K10KC7K  S2010 06 06.66685 22 47 30.42 +02 33 40.6                 EL041C51
     K10KC7K  s2010 06 06.66685 1 + 6578.4032 - 2104.1169 +  187.5730   EL041C51
     K10KC7K  S2010 06 06.79916 22 47 55.10 +02 36 13.6                 EL041C51
     K10KC7K  s2010 06 06.79916 1 + 6583.0681 - 2088.8231 +  189.2425   EL041C51
     K10KC7K  S2010 06 06.93146 22 48 19.89 +02 38 46.3                 EL041C51
     K10KC7K  s2010 06 06.93146 1 + 6587.8582 - 2073.4982 +  192.2359   EL041C51
     K10KC7K  S2010 06 07.06376 22 48 44.68 +02 41 18.5                 EL041C51
     K10KC7K  s2010 06 07.06376 1 + 6592.9404 - 2057.8992 +  195.7956   EL041C51
     K10KC7K  S2010 06 07.19607 22 49 09.47 +02 43 50.1                 EL041C51
     K10KC7K  s2010 06 07.19607 1 + 6597.6329 - 2042.5162 +  199.1656   EL041C51
     K10KC7K  S2010 06 07.32837 22 49 34.23 +02 46 22.8                 EL041C51
     K10KC7K  s2010 06 07.32837 1 + 6602.0728 - 2027.2257 +  201.5621   EL041C51

Observer details:
C51 WISE.  Measurers A. Mainzer, E. Wright, J. Bauer, T. Grav, J. Dailey, J.
    Masiero, R. Cutri, R. McMillan, R. Walker.
    (http://wise.ssl.berkeley.edu/mission_sci.html)

Orbital elements:
2010 KK127                                               Earth MOID = 0.2744 AU
Epoch 2010 July 23.0 TT = JDT 2455400.5                 MPC
M 356.74469              (2000.0)            P               Q
n   0.30452065     Peri.  158.29144     +0.94311826     +0.33242187
a   2.1880549      Node   182.30934     -0.32001744     +0.90376764
e   0.4158484      Incl.    6.93119     -0.09009319     +0.26962891
P   3.24           H   19.9           G   0.15           U   9
Residuals in seconds of arc
100521 C51  0.8-  0.4-    100524 C51  0.1-  0.9-    100526 C51  0.5-  0.6-
100521 C51  0.3+  0.8+    100524 C51  1.3+  1.0+    100526 C51  0.4-  0.6+
100522 C51  1.5+  0.9-    100524 C51 (2.9+  0.2-)   100526 C51  0.6+  0.1+
100522 C51  1.1-  1.1-    100524 C51  0.7-  0.6+    100526 C51  0.2+  0.4+
100523 C51  0.2-  0.8+    100524 C51  0.2-  0.3-    100526 C51 (2.8-  0.5+)
100523 C51  0.9+  0.4-    100524 C51  0.1-  0.4+    100606 C51  1.1+  2.1-
100523 C51  0.8+  1.7+    100524 C51  0.5+  0.4+    100606 C51  0.9-  1.3-
100523 C51  0.7-  0.9+    100524 C51  0.8-  0.5+    100606 C51  0.1-  0.5+
100523 C51  0.2+  1.1-    100525 C51  0.1-  0.4+    100606 C51  0.9-  0.9+
100523 C51  0.3-  0.7-    100525 C51  0.4-  1.6-    100606 C51  0.3-  1.1+
100523 C51  1.8-  1.7-    100525 C51  0.9+  0.5+    100607 C51  0.2+  0.7+
100524 C51  0.6+  0.9-    100525 C51  0.3-  1.2+    100607 C51  0.5+  0.3-
100524 C51 (1.4-  2.5+)   100525 C51 (1.0-  2.9+)   100607 C51  0.2+  0.2-

Ephemeris:
2010 KK127               a,e,i = 2.19, 0.42, 7                   q = 1.2782
Date    TT    R. A. (2000) Decl.     Delta      r     Elong.  Phase     V
2010 06 03    22 36.15   +01 23.4    0.955    1.405    91.0    46.2    22.3
2010 06 13    23 07.44   +04 35.4    0.883    1.369    92.0    47.9    22.1
2010 06 23    23 39.71   +07 44.4    0.822    1.338    92.8    49.3    21.9
2010 07 03    00 12.84   +10 42.2    0.770    1.313    93.6    50.6    21.8
2010 07 13    00 46.49   +13 19.5    0.726    1.294    94.4    51.6    21.7
2010 07 23    01 20.07   +15 27.8    0.690    1.282    95.6    52.0    21.6
2010 08 02    01 52.88   +17 00.7    0.660    1.278    97.2    52.0    21.4
2010 08 12    02 23.96   +17 54.3    0.634    1.281    99.5    51.3    21.3
2010 08 22    02 52.27   +18 07.5    0.612    1.292   102.7    49.8    21.2
2010 09 01    03 16.89   +17 42.5    0.593    1.310   106.8    47.5    21.1
2010 09 11    03 36.82   +16 42.7    0.575    1.334   112.1    44.4    21.0
2010 09 21    03 51.25   +15 13.5    0.560    1.364   118.7    40.2    20.9
2010 10 01    03 59.64   +13 21.4    0.548    1.400   126.7    35.0    20.8
2010 10 11    04 01.74   +11 14.9    0.543    1.440   136.0    28.8    20.6
2010 10 21    03 58.01   +09 05.6    0.548    1.483   146.4    21.8    20.5
2010 10 31    03 49.84   +07 07.6    0.566    1.530   156.9    14.8    20.4
2010 11 10    03 39.32   +05 35.2    0.601    1.578   165.0     9.4    20.4
2010 11 20    03 28.98   +04 38.6    0.655    1.629   164.8     9.1    20.7
2010 11 30    03 20.82   +04 19.9    0.728    1.681   157.1    13.2    21.1
2010 12 10    03 15.97   +04 35.1    0.819    1.733   147.7    17.7    21.6
2010 12 20    03 14.82   +05 16.7    0.927    1.786   138.4    21.5    22.0
2010 12 30    03 17.12   +06 16.5    1.050    1.839   129.6    24.3    22.5
2011 01 09    03 22.45   +07 27.8    1.184    1.892   121.4    26.3    22.8
2011 01 19    03 30.34   +08 44.9    1.329    1.945   113.7    27.6    23.2

Timothy B. Spahr             (C) Copyright 2010 MPC           M.P.E.C. 2010-L41

Read MPEC 2010-L40 Read MPEC 2010-L42


MPEC number:

Enter an MPEC number in one of the following forms:

  • 1997-B01 (the full form)
  • J97B01 (the packed version of the full form)
  • B01 (the abbreviated form)

Valid HTML 4.01!